TimeEDT,TemperatureF,Dew PointF,Humidity,Sea Level PressureIn,VisibilityMPH,Wind Direction,Wind SpeedMPH,Gust SpeedMPH,PrecipitationIn,Events,Conditions,WindDirDegrees,DateUTC
12:53 AM,23.0,21.0,92,30.24,10.0,NW,10.4,-,N/A,,Clear,310,2013-03-27 04:53:00
1:53 AM,21.0,19.9,96,30.24,10.0,NW,9.2,-,N/A,,Clear,320,2013-03-27 05:53:00
2:53 AM,26.1,21.9,84,30.24,10.0,NNW,9.2,-,N/A,,Clear,330,2013-03-27 06:53:00
3:53 AM,21.9,19.0,89,30.24,10.0,NW,9.2,-,N/A,,Clear,310,2013-03-27 07:53:00
4:53 AM,19.9,18.0,92,30.24,10.0,NW,10.4,-,N/A,,Clear,310,2013-03-27 08:53:00
5:53 AM,26.1,21.9,84,30.24,10.0,NW,12.7,-,N/A,,Clear,320,2013-03-27 09:53:00
6:53 AM,25.0,21.9,88,30.26,10.0,NW,10.4,-,N/A,,Clear,320,2013-03-27 10:53:00
7:53 AM,24.1,21.9,91,30.27,10.0,NNW,6.9,-,N/A,,Clear,330,2013-03-27 11:53:00
8:53 AM,25.0,21.0,85,30.28,10.0,NW,8.1,-,N/A,,Clear,320,2013-03-27 12:53:00
9:53 AM,30.9,23.0,72,30.29,10.0,NNW,8.1,-,N/A,,Clear,330,2013-03-27 13:53:00
10:53 AM,33.1,23.0,66,30.29,10.0,NNW,6.9,-,N/A,,Clear,330,2013-03-27 14:53:00
11:53 AM,35.1,19.9,54,30.29,10.0,North,16.1,-,N/A,,Clear,350,2013-03-27 15:53:00
12:53 PM,35.1,19.9,54,30.30,10.0,NNW,13.8,20.7,N/A,,Clear,330,2013-03-27 16:53:00
1:53 PM,36.0,18.0,48,30.30,10.0,North,16.1,-,N/A,,Clear,350,2013-03-27 17:53:00
2:53 PM,36.0,19.9,52,30.30,10.0,NNW,12.7,20.7,N/A,,Clear,330,2013-03-27 18:53:00
3:53 PM,36.0,18.0,48,30.30,10.0,NNW,13.8,-,N/A,,Clear,340,2013-03-27 19:53:00
4:53 PM,37.0,19.0,48,30.29,10.0,NW,12.7,-,N/A,,Clear,320,2013-03-27 20:53:00
5:53 PM,36.0,19.9,52,30.28,10.0,WNW,12.7,-,N/A,,Clear,300,2013-03-27 21:53:00
6:53 PM,36.0,17.1,46,30.29,10.0,WNW,13.8,-,N/A,,Clear,290,2013-03-27 22:53:00
7:53 PM,34.0,18.0,52,30.29,10.0,West,10.4,-,N/A,,Clear,280,2013-03-27 23:53:00
8:53 PM,30.9,19.9,64,30.29,10.0,WNW,8.1,-,N/A,,Clear,290,2013-03-28 00:53:00
9:53 PM,30.0,19.9,66,30.29,10.0,WNW,8.1,-,N/A,,Clear,300,2013-03-28 01:53:00
10:53 PM,24.1,18.0,77,30.30,10.0,WNW,9.2,-,N/A,,Clear,300,2013-03-28 02:53:00
11:53 PM,28.9,19.0,67,30.28,10.0,WNW,12.7,-,N/A,,Clear,290,2013-03-28 03:53:00